Regional Weather Roundup
Issued by NWS Green Bay, WI

Home | Current Version | Previous Version | Graphics & Text | Print | Product List | Glossary Off
Versions: 1 2 3 4 5 6 7 8 9 10 11 12 13 14 15 16 17 18 19 20 21 22 23 24 25 26 27 28 29 30 31 32 33 34 35 36 37 38 39 40 41 42 43 44 45 46 47 48 49 50

000
ASUS43 KGRB 292311
RWRGRB

NORTH-CENTRAL AND NORTHEAST WISCONSIN REGIONAL WEATHER ROUNDUP
NATIONAL WEATHER SERVICE GREEN BAY WI
600 PM CDT WED JUL 29 2015

WIZ005-009-010>012-018-019-300000-
NORTH CENTRAL WISCONSIN

CITY           SKY/WX    TMP DP  RH WIND       PRES   REMARKS
IRONWOOD       CLOUDY    72  57  60 SW10      29.78F
MANITOWISH WTR CLOUDY    73  55  52 W16       29.84F
ARBOR VITAE    CLOUDY    77  58  51 W14       29.86S
EAGLE RIVER    PTSUNNY   75  50  42 W15G23    29.85F
LAND O LAKES   CLOUDY    74  53  47 W8G18     29.85F
RHINELANDER    PTSUNNY   77  54  44 W16G26    29.88S
PHILLIPS       MOSUNNY   76  54  46 W8G22     29.87S
ANTIGO         CLOUDY    74  54  49 W14G23    29.89S
TOMAHAWK       MOSUNNY   76  52  42 W18G24    29.89S
MERRILL        NOT AVBL
$$

WIZ013-073-300000-
NORTHEAST WISCONSIN

CITY           SKY/WX    TMP DP  RH WIND       PRES   REMARKS
IRON MOUNTAIN  CLOUDY    77  55  46 W12G22    29.82R
MARINETTE      CLOUDY    81  54  39 NW9       29.81R
OCONTO         CLOUDY    82  55  39 W12G22    29.83R
$$

WIZ017-030-035>037-045-300000-
CENTRAL WISCONSIN

CITY           SKY/WX    TMP DP  RH WIND       PRES   REMARKS
MEDFORD        PTSUNNY   76  54  45 W14G28    29.91S
WAUSAU         MOSUNNY   80  52  37 W20G32    29.88R
MOSINEE        MOSUNNY   79  52  38 W22G31    29.91S
MARSHFIELD     SUNNY     79  51  37 W20G32    29.91S
WISC RAPIDS    MOSUNNY   82  50  32 NW18G29   29.93R
STEVENS POINT  MOSUNNY   79  52  39 W14G21    29.91S
WAUPACA        SUNNY     83  48  28 W16G26    29.89R
SHAWANO        CLOUDY    82  51  35 W16G26    29.86S
CLINTONVILLE   CLOUDY    81  46  30 W18G26    29.86S
$$

WIZ038-039-048-051-300000-
FOX VALLEY

CITY           SKY/WX    TMP DP  RH WIND       PRES   REMARKS
NWS GREEN BAY  SUNNY     83  54  36 W22G29    29.86R
APPLETON       MOSUNNY   81  46  30 W23       29.89R
OSHKOSH        SUNNY     83  52  34 W15G25    29.88R
FOND DU LAC    SUNNY     83  51  33 W17G26    29.90R
$$

WIZ022-050-052-300000-
EAST CENTRAL WISCONSIN

CITY           SKY/WX    TMP DP  RH WIND       PRES   REMARKS
STURGEON BAY   MOSUNNY   82  54  36 W12G21    29.85R
MANITOWOC      SUNNY     84  50  30 MISG      29.86R
SHEBOYGAN      SUNNY     83  51  33 W17G28    29.88S
$$

LMZ563-521-522-541>543-300000-
LAKESHORE

STATION/POSITION TIME  TEMP    WIND        PRES    VSBY  WAVE
                       AIR SEA DIR/SP/G                  HT/PER
                 (UTC) (F)     (DEG/KT/KT) (MB)    (MI)  (FT/S)
SHEBOYGAN LKSHOR 2300   83     250/ 17/ 21 1011.6R
KEWAUNEE LKSHORE 2200   84                   N/A
ALGOMA MARINA    2212          270/ 15/ 25   N/A
NORTHPORT PIER   2200   85     240/  3/ 11 1008.5S
N MID LAKE BUOY  2250   74 70  220/ 14/ 16 1008.2R         3/ 5
S GREEN BAY BUOY 2230   72 67  250/ 14/ 17 1011.4R
SISTER BAY LKSHO 2229   80     280/ 12/ 13   N/A
CHAMBERS ISLAND  2200   79     230/  6/ 15 1008.5S
MENOMINEE LKSHOR 2200   83                   N/A
$$


USA.gov is the U.S. government's official web portal to all federal, state and local government web resources and services.